Regional Weather Roundup
Issued by NWS

Home | Current Version | Previous Version | Text Only | Print | Product List | Glossary Off
Versions: 1 2 3 4 5 6 7 8 9 10 11 12 13 14 15 16 17 18 19 20 21 22 23 24 25 26 27 28 29 30 31 32 33 34 35 36 37 38 39 40 41 42 43 44 45 46 47 48 49 50

000
ASUS43 KLSX 250459
RWRMO

WEATHER SUMMARY FOR MISSOURI
NATIONAL WEATHER SERVICE SPRINGFIELD MO
1200 AM CDT TUE APR 25 2017

NOTE: "FAIR" INDICATES FEW OR NO CLOUDS BELOW 12,000 FEET WITH NO
       SIGNIFICANT WEATHER AND/OR OBSTRUCTIONS TO VISIBILITY.
       CURRENT SKY AND/OR WEATHER CONDITIONS ARE NOT AVAILABLE FOR
       CHILLICOTHE AND FARMINGTON.

MOZ001>031-035>038-043-044-053-054-250600-
...NORTHERN AND WESTERN MISSOURI...

CITY           SKY/WX    TMP DP  RH WIND       PRES   REMARKS
KANSAS CTY INT PTCLDY    62  44  51 S13       29.58F
KANSAS C DTWN  CLEAR     66  43  43 S10       29.58F
LEE`S SUMMIT   CLOUDY    61  43  51 S9        29.60F
ST JOSEPH      PTCLDY    62  45  53 S9        29.57F
CHILLICOTHE      N/A     53  41  63 CALM      29.62F
KIRKSVILLE     CLEAR     52  32  46 SE9       29.64F

$$
MOZ066>068-077>081-088>096-101>105-250600-
...SOUTHWEST MISSOURI...

CITY           SKY/WX    TMP DP  RH WIND       PRES   REMARKS
SPRINGFIELD    CLOUDY    59  38  45 S10       29.68F
JOPLIN         CLOUDY    59  45  59 S10       29.65F

$$
MOZ032>034-039>042-045>050-055>058-069>072-250600-
...CENTRAL MISSOURI...

CITY           SKY/WX    TMP DP  RH WIND       PRES   REMARKS
COLUMBIA       PTCLDY    58  36  43 S9        29.66F
JEFFERSON CITY PTCLDY    60  37  42 E7        29.66F
ROLLA          CLEAR     60  41  49 S13       29.69F
SEDALIA        CLOUDY    58  39  49 S12       29.64F
OSAGE BEACH    MOCLDY    59  40  49 S6        29.69F

$$
MOZ051-052-059>065-250600-
...EAST CENTRAL MISSOURI...

CITY           SKY/WX    TMP DP  RH WIND       PRES   REMARKS
ST LOUIS INTL  CLEAR     66  38  35 SE8       29.72S
SPIRIT OF STL  CLEAR     53  44  71 CALM      29.71S
ST CHARLES     CLEAR     56  38  50 SE6       29.71R

$$
MOZ072>076-082>087-097>100-106>115-250600-
...SOUTH CENTRAL AND SOUTHEAST MISSOURI...

CITY           SKY/WX    TMP DP  RH WIND       PRES   REMARKS
CAPE GIRARDEAU CLEAR     54  50  86 CALM      29.74R
FARMINGTON     CLEAR     57  47  69 S3        29.75R
POPLAR BLUFF   CLEAR     58  56  93 CALM      29.74S
WEST PLAINS    CLEAR     58  45  62 S7        29.76R

$$




USA.gov is the U.S. government's official web portal to all federal, state and local government web resources and services.